Regional Weather Roundup
Issued by NWS

Home | Current Version | Previous Version | Text Only | Print | Product List | Glossary Off
Versions: 1 2 3 4 5 6 7 8 9 10 11 12 13 14 15 16 17 18 19 20 21 22 23 24 25 26 27 28 29 30 31 32 33 34 35 36 37 38 39 40 41 42 43 44 45 46 47 48 49 50

000
ASUS43 KMKX 291421
RWRWI

WISCONSIN REGIONAL WEATHER ROUNDUP
NATIONAL WEATHER SERVICE MILWAUKEE/SULLIVAN WI
900 AM CDT THU SEP 29 2016

NOTE: "FAIR" INDICATES FEW OR NO CLOUDS BELOW 12,000 FEET WITH NO
SIGNIFICANT WEATHER AND/OR OBSTRUCTIONS TO VISIBILITY.

WIZ001-002-006>008-014>016-023>028-291500-
NORTHWEST WISCONSIN

CITY           SKY/WX    TMP DP  RH WIND       PRES   REMARKS
SUPERIOR ARPT  PTSUNNY   56  52  86 E9        30.51R
ASHLAND        CLOUDY    53  51  93 NE12      30.51R
HAYWARD        CLOUDY    54  50  86 N7        30.48S
SIREN          CLOUDY    49  49  99 E5        30.49R
CUMBERLAND     CLOUDY    52  50  93 N7        30.47R
RICE LAKE      PTSUNNY   54  50  86 N7        30.48R
CHETEK         NOT AVBL
LADYSMITH      CLOUDY    51  49  94 NE9       30.48R
EAU CLAIRE     PTSUNNY   52  48  86 NE9       30.44R
MENOMONIE      SUNNY     53  51  93 CALM      30.45S
NEW RICHMOND   MOSUNNY   51  51 100 NE5       30.47S
OSCEOLA        SUNNY     50  50 100 CALM      30.50S
$$

WIZ003>005-009-010-017-018-291500-
NORTH CENTRAL WISCONSIN

CITY           SKY/WX    TMP DP  RH WIND       PRES   REMARKS
MANITOWISH WTR NOT AVBL
ARBOR VITAE    CLOUDY    52  50  94 NE7       30.46S
WOODRUFF       CLOUDY    52  50  94 NE7       30.46S
RHINELANDER    CLOUDY    50  50 100 NE6       30.46R
EAGLE RIVER    CLOUDY    51  51  98 N9        30.46R
LAND O LAKES   CLOUDY    52  51  96 NE7       30.49R
PHILLIPS       CLOUDY    49  49 100 NE9       30.46S
TOMAHAWK       CLOUDY    49  48  95 N8        30.46R
MEDFORD        CLOUDY    49  49 100 N10       30.42S
MERRILL        CLOUDY    50  50  99 N7        30.44R
$$

WIZ029-030-035-036-043>047-291500-
CENTRAL WISCONSIN

CITY           SKY/WX    TMP DP  RH WIND       PRES   REMARKS
WAUSAU         SUNNY     52  48  86 N7        30.40R
MOSINEE        SUNNY     52  48  87 N9        30.41R
MARSHFIELD     SUNNY     54  47  77 N10       30.40R
STEVENS POINT  SUNNY     53  49  85 NE10      30.39R
WAUPACA        SUNNY     58  53  81 N9        30.37R
WAUTOMA        SUNNY     57  51  80 NE14G20   30.35S
WISC RAPIDS    SUNNY     56  50  80 NE10      30.39R
CAMP DOUGLAS   SUNNY     54  50  87 VRB6      30.38R
$$

WIZ011>013-019>022-031-037>040-048>050-291500-
NORTHEAST WISCONSIN

CITY           SKY/WX    TMP DP  RH WIND       PRES   REMARKS
ANTIGO         SUNNY     52  49  90 NE3       30.42R
SHAWANO        SUNNY     59  52  78 NE12      30.39R
OCONTO         NOT AVBL
STURGEON BAY   SUNNY     62  57  83 N10       30.36R
GREEN BAY      PTSUNNY   57  55  93 N13       30.36R
MANITOWOC      CLOUDY    61  57  87 N14G24    30.31R
APPLETON       PTSUNNY   54  54 100 N12       30.34R
CLINTONVILLE   SUNNY     57  50  77 NE12      30.37R
OSHKOSH        CLOUDY    56  53  90 N16       30.33R
$$

WIZ032>034-041-042-053>061-291500-
SOUTHWEST WISCONSIN

CITY           SKY/WX    TMP DP  RH WIND       PRES   REMARKS
LA CROSSE      MOSUNNY   55  51  86 N8        30.40R
SPARTA         SUNNY     51  49  92 CALM      30.40R
VIROQUA        SUNNY     53  50  90 N9        30.37R
BOSCOBEL       SUNNY     57  51  80 NE7       30.35S
PRAIRIE DU CHI SUNNY     56  49  78 NW5       30.36R
PLATTEVILLE    SUNNY     55  53  92 N13G20    30.31S
$$

WIZ056-057-062-063-064-067-068-291500-
SOUTH CENTRAL WISCONSIN

CITY           SKY/WX    TMP DP  RH WIND       PRES   REMARKS
REEDSBURG      NOT AVBL
BARABOO/DELLS  SUNNY     53  49  85 N5        30.34S
LONE ROCK      SUNNY     57  50  77 N12G17    30.35R
MINERAL POINT  SUNNY     55  52  88 N9        30.32R
MADISON        CLOUDY    54  51  90 N15       30.31R
MIDDLETON      CLOUDY    55  54  97 N12G17    30.33R
WATERTOWN      MOSUNNY   59  57  92 N13G18    30.27R
MONROE         CLOUDY    54  50  87 N14G22    30.28R
JANESVILLE     PTSUNNY   59  55  88 N15G21    30.24S
$$

WIZ051-052-058>065-066-070>072-291500-
SOUTHEAST WISCONSIN

CITY           SKY/WX    TMP DP  RH WIND       PRES   REMARKS
MILWAUKEE      MOSUNNY   63  57  81 N18G31    30.24R
WAUKESHA       SUNNY     61  55  82 N13G18    30.25R
MILWAUKEE/TIMM MOSUNNY   61  54  77 N18G26    30.24R
RACINE         CLOUDY    59  56  89 N17       30.23R
BURLINGTON     PTSUNNY   61  54  78 NE15G24   30.22S
KENOSHA        PTSUNNY   62  56  80 N18G25    30.21R
FOND DU LAC    CLOUDY    58  55  90 N14       30.32R
SHEBOYGAN      PTSUNNY   62  57  83 N14G24    30.28S
WEST BEND      MOSUNNY   61  55  82 NE16G22   30.27
JUNEAU         CLOUDY    56  54  91 N15       30.30S
$$

LSZ147-162-291500-
LAKE SUPERIOR

STATION/POSITION TIME  TEMP    WIND        PRES    WAVE
                       AIR SEA DIR/SP/G            HT/PER
                 (UTC) (F)     (DEG/KT/KT) (MB)    (FT/S)
W MID LAKE BUOY  1350   55 55   40/ 12/ 14 1032.9R   2/ 3
DEVILS ISLAND    1400   53      40/ 10/ 11 1033.6R
SAXON HARBOR     1300   57      50/ 13/ 15 1031.8R
$$

LMZ867-665-643>646-291500-
LAKE MICHIGAN

STATION/POSITION TIME  TEMP    WIND        PRES    WAVE
                       AIR SEA DIR/SP/G            HT/PER
                 (UTC) (F)     (DEG/KT/KT) (MB)    (FT/S)
CHAMBERS ISLAND  1300   61     360/ 17/ 23 1027.4R
S GREEN BAY BUOY 1400   59 62   50/ 17/ 21 1027.4
N MID LAKE BUOY  1350   62 66   60/ 17/ 19 1027.8R   3/ 4
NORTHPORT PIER   1300   61      10/ 13/ 16 1027.8R
SISTER BAY       1308   65      20/  9/ 15   N/A
KEWAUNEE LAKESHO 1300   59      10/  8/ 14 1026.0R
SHEBOYGAN LAKESH 1400   59      20/ 20/ 22 1025.0R
PORT WASHINGTON  1404   65      30/ 20/ 27 1025.4R
ATWATER BUOY     1400   57      20/ 17/ 23 1023.5R
MILWAUKEE LAKESH 1410   60     360/ 21/ 26   N/A
S MID LAKE BUOY  1350   64 69   60/ 25/ 29 1020.9R   7/ 7
KENOSHA   LAKESH 1400   58     360/ 19/ 22 1022.7R
$$

TC  - TEMPERATURE IN CELSIUS
VSB - VISIBILITY IN STATUTE MILES
WCI - WIND CHILL INDEX
HX  - HEAT INDEX





USA.gov is the U.S. government's official web portal to all federal, state and local government web resources and services.